sat.trackr.live / text

‹ back to catalog

STARLINK-35449

NORAD 66459 · 2025-262D

PAYLOAD ACTIVE UNKNOWN

§ Identity

Operator
Country
US
Launch date
2025-11-15
Launch site
AFETR
Launch vehicle
Mass (kg)
RCS (m²)

Purposes: comms

External: N2YO · Heavens-Above · Gunter

§ Orbital elements

Epoch: 2026-09-20T08:03:35.136576Z

Period
94.27 min
Inclination
42.9980°
Eccentricity
0.0001076
Mean motion
15.27592343 rev/d
Perigee alt
482.3 km
Apogee alt
483.8 km
Semi-major
6,861.1 km
B*
3.2063e-4
RAAN
277.0319°
Arg perigee
278.4278°
Mean anomaly
81.6451°
Rev number
4,867

§ Raw data

STARLINK-354491 66459U 25262D   26263.33582334  .00008575  00000+0  32063-3 0  99982 66459  42.9980 277.0319 0001076 278.4278  81.6451 15.27592343 48676

JSON: /api/v1/satellites/66459 · /tle

For live sub-satellite position, see the globe view (requires WebGL).

§ Visibility from observer

Set your observer location to see the next 7 days of passes ≥ 10°. The values pass through the URL so the page stays shareable.

No JS? Fill the form by hand. The geolocation button needs JavaScript.